www.pogodaiklimat.ru

Погода и климат >> Архив погоды >> Россия >> Чукотка >> Айон Остров


ПОГОДА на Айон Острове

  • Прогноз погоды на Айон Острове
  • Монитор погоды на Айон Острове
  • Климат города

АРХИВ ПОГОДЫ на Айон Острове

Время (UTC), дата Ветер
(напр.,м/с)
 
Видим.   Явления Облачность Т
(С)
Тd
(С)
f
(%)
Тe
(С)
Тes
(С)
Комфортность P
(гПа)
Po
(гПа)
Тmin
(С)
Tmax
(С)
R
(мм)
R24
(мм)
S
(см)
09 19.06 С 3-3
{7}
20 км 10/3 200 м
[St As op]
+0.6 -0.2 94 -4 -4 1008.2 1006.5 +6.7
15 19.06 С 1-2
{5}
10 км слабый дождь 10/3 200 м
[Frnb As op]
+0.6 +0.1 96 -2 -2 1005.7 1004.0
21 19.06 З 1-2
{4}
20 км {дождь} 10/0
[As op]
+0.9 +0.1 94 -1 0 1003.4 1001.7 +0.5 2
03 20.06 З 2-3
{4}
20 км 10/0
[Ac und]
+3.0 +2.4 96 -0 +2 1001.6 999.9
09 20.06 З 3-3
{4}
20 км 10/10 180 м
[St]
+1.6 +0.8 94 -3 -3 1001.0 999.3 +3.0
12 20.06 СЗ 3-4
{5}
10 км дождь {туман} 10/8 200 м
[Frnb As op]
+1.4 +1.1 98 -3 -3 1001.1 999.4
15 20.06 З 3-4
{4}
10 км дождь {туман} 10/8 200 м
[Frnb As op]
+1.3 +1.0 98 -3 -3 1001.2 999.5
18 20.06 З 3-4
{5}
20 км {дождь, туман} 10/10 180 м
[St]
+1.3 +0.5 94 -3 -3 1002.2 1000.5
21 20.06 З 3-4
{5}
20 км 10/10 240 м
[St]
+1.7 +0.9 94 -3 -3 1004.0 1002.3 +1.1 2
00 21.06 З 3-4
{5}
20 км 8/3 200 м
[St Ac trans]
+2.7 +1.7 93 -2 +2 1005.9 1004.2
03 21.06 СЗ 3-4
{4}
20 км 10/8 180 м
[St Ac und]
+3.0 +2.2 94 -1 -1 1007.1 1005.4
06 21.06 СЗ 1-2
{4}
4000 м дымка 10/10 120 м
[St]
+2.4 +1.9 96 +1 +1 1008.5 1006.8
09 21.06 С 2-3
{4}
4000 м дымка 10/10 120 м
[St]
+1.2 +0.7 96 -2 -2 1009.1 1007.4 +3.5
12 21.06 штиль 0
{3}
20 км 3/3 200 м
[St Ac trans]
+0.7 -0.1 94 -1 -1 1009.6 1007.9
15 21.06 В 1-1
{1}
20 км 4/3 200 м
[St Ac trans Ci fib]
+0.8 -0.3 92 -1 -1 1009.6 1007.9
18 21.06 В 4-5
{5}
20 км 3/1 200 м
[St Ac trans Ci fib]
+3.6 +1.7 87 -1 0 1009.4 1007.7
21 21.06 В 3-5
{6}
20 км 8/0
[Ac trans Ci fib]
+7.0 -0.7 58 +4 +8 1009.2 1007.5 -0.3
00 22.06 В 5-7
{8}
20 км 8/0
[Ac trans Ci fib]
+9.1 +4.7 74 +6 +9 1008.2 1006.5
03 22.06 В 6-10
{10}
20 км 4/0
[Ac trans Ci fib]
+10.6 +4.7 67 +8 +10 1007.2 1005.5
06 22.06 В 5-8
{10}
20 км 4/0
[Ac trans]
+9.5 +4.7 72 +6 +8 1006.5 1004.8
09 22.06 В 4-6
{8}
20 км 8/0
[Ac trans Ci fib]
+7.7 +4.6 81 +4 +5 1006.3 1004.6 +10.9
12 22.06 В 3-5
{6}
20 км 8/0
[Ac trans Ci fib]
+5.4 +3.6 88 +2 +2 1005.5 1003.8
15 22.06 СЗ 1-2
{7}
20 км 10/0
[Ac und]
+1.4 +0.6 94 -1 -1 1005.5 1003.8
18 22.06 З 4-5
{5}
20 км 9/0
[Ac trans Ci fib]
+3.0 +2.2 94 -2 -1 1006.4 1004.7
21 22.06 З 4-5
{6}
20 км 9/0
[Ac trans Ci fib]
+2.0 +0.9 92 -3 -1 1007.0 1005.3 +1.2
00 23.06 З 3-4
{6}
4000 м дымка 6/0
[Ac trans Ci fib]
+2.0 +1.5 96 -2 +4 1007.2 1005.5
03 23.06 З 2-2
{5}
20 км 3/0
[Ci fib]
+8.3 +5.2 81 +6 +15 опасность
простуды
1006.1 1004.4
06 23.06 Ю 4-6
{6}
20 км 3/0
[Ac trans Ci fib]
+14.6 +5.6 55 +14 +16 1004.6 1003.0
09 23.06 Ю 8-10
{12}
20 км 10/0
[Ac trans Ci fib]
+10.0 +6.3 78 +6 +6 1003.3 1001.6 +14.7
12 23.06 Ю 9-11
{11}
20 км 10/0
[Ac trans Ci fib]
+9.7 +8.0 89 +5 +5 1001.6 1000.0
15 23.06 Ю 9-10
{12}
20 км 10/0
[Ac trans Ci fib]
+8.6 +7.1 90 +4 +4 999.1 997.4
18 23.06 Ю 8-10
{11}
20 км 10/0
[Ac und]
+11.1 +6.7 74 +8 +8 996.8 995.1
21 23.06 Ю 9-11
{12}
20 км 10/0
[Ac und]
+16.3 +9.0 62 +15 +15 994.7 993.1 +8.5
00 24.06 ЮЗ 7-9
{11}
20 км 10/0
[Ac und]
+15.5 +9.6 68 +14 +15 993.9 992.3
03 24.06 ЮЗ 5-6
{11}
20 км 10/0
[Ac und]
+9.1 +6.2 82 +6 +7 994.5 992.9
06 24.06 С 3-5
{8}
20 км 10/10 150 м
[St]
+2.7 +1.9 94 -2 -2 997.4 995.7
09 24.06 С 5-9
{9}
4000 м сильный дождь 10/8 200 м
[Frnb As op]
+1.6 +1.3 98 -4 -4 1000.2 998.5 +18.0 1
12 24.06 С 4-6
{9}
4000 м сильный дождь 10/8 200 м
[Frnb As op]
+1.1 +0.8 98 -4 -4 1002.2 1000.5
15 24.06 С 5-7
{8}
20 км {дождь} 10/10 240 м
[St]
+1.2 +0.4 94 -5 -5 1004.0 1002.3
18 24.06 СЗ 6-8
{8}
20 км {дождь} 10/10 300 м
[St]
+1.0 -0.2 92 -5 -5 1006.2 1004.5
21 24.06 СЗ 6-8
{10}
20 км 10/8 300 м
[St Ci fib]
+0.8 -0.9 88 -6 -5 1009.1 1007.4 +0.4 1
00 25.06 З 7-9
{10}
20 км 6/5 300 м
[St Ci fib]
+1.2 0.0 92 -6 -4 1011.1 1009.4 +0.3
03 25.06 СЗ 8-9
{11}
20 км 10/10 240 м
[St]
+0.6 -0.7 91 -7 -7 1012.6 1010.9
06 25.06 З 5-6
{10}
20 км 8/5 300 м
[St Ac trans]
+1.0 -0.3 91 -5 -4 1013.4 1011.7
09 25.06 З 3-4
{6}
20 км 6/3 300 м
[St Ac trans]
+0.8 -0.2 93 -4 -3 1014.2 1012.5 +1.8
12 25.06 З 3-4
{7}
20 км 8/8 420 м
[St]
-0.1 -1.0 94 -5 -5 1013.9 1012.2
15 25.06 З 2-4
{5}
20 км 8/8 400 м
[St]
+0.1 -0.9 93 -4 -4 1013.2 1011.5
18 25.06 ЮЗ 4-5
{5}
20 км 3/3 300 м
[St Ac trans]
+1.3 -0.2 90 -4 -3 1012.3 1010.6
21 25.06 З 2-3
{5}
20 км 9/3 300 м
[St Ac trans]
+1.8 +0.3 90 -2 +1 1011.5 1009.8 -0.2
00 26.06 ЮЗ 4-5
{6}
20 км 8/0
[Ac trans Ci fib]
+5.2 +1.1 75 +1 +6 1009.9 1008.2
03 26.06 ЮЗ 5-7
{7}
20 км 9/0
[Ac trans Ci fib]
+8.6 0.0 55 +5 +8 1007.8 1006.1
06 26.06 Ю 7-9
{9}
20 км 9/0
[Ac trans Ci fib]
+8.3 +2.1 65 +4 +5 1006.1 1004.4

 

Местоположение метеостанции Айон Остров (Чукотка, Россия): широта 69.93 долгота 167.90 высота над уровнем моря 14 м.

В архиве по умолчанию представлена погода на Айон Острове за последнюю неделю. Архивные данные за месяц целиком и за предыдущие месяцы, начиная с января 2011 года, Вы можете получить, выбрав интересующий диапазон дат из раскрывающегося списка и нажав кнопку "Ввод!".

Внимание! Время в таблицах - всемирное. Для получения местного времени необходимо прибавить поправку, которая на Айон Острове равна 12 ч.

Смотрите также архив погоды в соседних городах и на ближайших метеорологических станциях:

Погода в Раучуе (Чукотка, Россия) (72 км)
Погода в Певеке (Чукотка, Россия) (92 км)
Погода в Валькаркае (Чукотка, Россия) (115 км)
Погода в 21 км (Чукотка, Россия) (117 км)
Погода в Чауне (Чукотка, Россия) (160 км)
Погода в Комсомольской (Чукотка, Россия) (211 км)
Погода в Билибино (Чукотка, Россия) (217 км)
Погода в Бухте Амбарчик (Чукотка, Россия) (218 км)
Погода на Островном (Чукотка, Россия) (252 км)
Погода в Паляваам-Глубокой (Чукотка, Россия) (257 км)

Пояснения к столбцам:

Ветер - указаны скорость ветра в м/с - средняя за 10 мин, порывы в срок и между сроками (в фигурных скобках) и направление, откуда дует ветер: С - северный, СВ - северо-восточный, В - восточный, ЮВ - юго-восточный, Ю - южный, ЮЗ - юго-западный, З - западный, СЗ - северо-западный.
Видимость - горизонтальная дальность видимости в метрах или километрах. При видимости от 1 до 10 км при отсутствии осадков обычно наблюдается дымка, при ухудшении видимости до 1 км и менее - туман. В сухую погоду видимость может ухудшаться дымом, пылью или мглою.
Явления - указаны атмосферные явления, наблюдавшиеся в срок или в последний час перед сроком; фигурными скобками обозначены явления, наблюдавшиеся между сроками (за 1-3 часа до срока); квадратными скобками обозначены град или гололедные отложения с указанием их диаметра в мм.
Облачность - указаны через наклонную черту общая и нижняя облачность в баллах и высота нижней границы облаков в метрах; квадратными скобками обозначены формы облаков: Ci - перистые, Cs - перисто-слоистые, Cc - перисто-кучевые, Ac - высококучевые, As - высокослоистые, Sc - слоисто-кучевые, Ns - слоисто-дождевые, Cu - кучевые, Cb - кучево-дождевые. Подробнее классификацию облаков см. в Атласе облаков (PDF).
T - Температура воздуха - температура, измеренная на высоте 2 м над землей.
Td - Температура точки росы - температура, при понижении до которой содержащийся в воздухе водяной пар достигнет насыщения.
f - Относительная влажность воздуха - влажноcть воздуха, измеренная на высоте 2 м над землей.
Te - Эффективная температура - температура, которую ощущает одетый по сезону человек в тени. Характеристика душности погоды. При расчете учитывается влияние влажности воздуха и скорости ветра на теплоощущения человека.
Tes - Эффективная температура на солнце - температура, которую ощущает человек, с поправкой на солнечный нагрев. Характеристика знойности погоды. Зависит от высоты солнца над горизонтом, облачности и скорости ветра. Ночью, в пасмурную погоду, а также при ветре 12 м/с и более поправка равна нулю.
P - Атмосферное давление - приведенное к уровню моря атмосферное давление.
Po - Атмосферное давление - измеренное на уровне метеостанции атмосферное давление.
Tmin - Минимальная температура - минимум температуры воздуха на высоте 2 м над землей.
Tmax - Максимальная температура - максимум температуры воздуха на высоте 2 м над землей.
R - Количество осадков - Количество выпавших осадков за период времени, мм. При наведении курсора мыши на число - период времени, за который выпало указанное количество осадков.
R24 - Количество осадков - Количество выпавших осадков за 24 часа, мм.
S - Снежный покров - Высота снежного покрова, см. При наведении курсора мыши на число - состояние снежного покрова и степень покрытия местности в баллах.